User: anonymous   Login
Location: Bottens
(46.6171°N, 6.6605°E)
Time: 14:56:13
(UTC+00:00)
Language:

Meteor 2-2 Rocket - Orbit

View from above orbital plane
View from above orbital plane
View from above satellite
View from above satellite

Ground track
Ground track

The orbit data is extracted from the following two-line orbital elements,

1 09662U 77002B   21258.85885866 -.00000028  00000-0 -26752-4 0  9999
2 09662  81.2771  31.1321 0053024  63.4481 297.2106 14.00957184283629
Epoch (UTC): 15 September 2021 20:36:45
Eccentricity: 0.0053024
inclination: 81.2771°
perigee height: 852 km
apogee height: 929 km
right ascension of ascending node: 31.1321°
argument of perigee: 63.4481°
revolutions per day: 14.00957184
mean anomaly at epoch: 297.2106°
orbit number at epoch: 28362

The dashed part of the orbit path shows where the satellite is in the earth's shadow,  

DLR